Wind_Speed
47 43 41 47 50 47 45 45 44 43 42 41 41 40 41 40 40 41 42 41 39 35 34 35 33 31 30 31 34 36 39 43 45 46 46 47 48 48 47 46 45 45 47 48 47 46 45 44 45 45 44 43 43 42 41 40 39 39 39 40 40 40 40 39 39 40 41 43 44 45 46 46 46 45 45 45 45 44 44 44 44 44 44 44 43 43
49 44 46 52 51 48 48 48 47 44 43 43 42 41 42 43 43 44 44 43 42 39 38 39 37 36 36 35 35 37 39 43 47 48 47 48 49 49 49 48 48 48 49 49 47 45 45 45 46 47 47 46 45 44 44 43 43 43 43 43 43 43 43 43 42 42 42 43 44 45 47 48 49 48 48 48 48 47 47 47 47 47 47 46 45 44
50 47 52 55 51 49 50 50 49 47 46 46 46 45 44 45 46 46 47 46 44 43 42 43 41 40 40 40 39 41 42 44 48 48 48 49 49 49 49 50 51 51 51 51 49 47 46 46 46 47 47 47 47 47 47 47 47 47 46 46 46 46 46 46 45 45 44 44 45 46 47 49 50 51 51 51 51 51 50 50 50 50 50 49 48 47
52 52 57 56 53 52 52 51 51 50 49 49 49 49 49 50 50 49 50 51 49 45 43 44 44 43 43 44 43 46 48 48 49 50 51 53 52 50 49 50 51 52 53 52 51 50 49 49 49 48 48 48 47 47 48 49 50 50 50 50 49 48 47 47 47 46 45 45 45 46 48 49 51 52 53 54 54 54 54 54 54 54 53 53 52 51
55 58 60 59 58 56 54 55 55 54 53 53 53 54 54 54 54 52 52 52 48 45 44 44 45 43 45 46 46 49 52 53 53 54 55 57 56 54 53 52 52 53 55 55 54 53 53 52 52 52 52 51 49 48 48 49 50 51 52 52 53 52 51 51 50 49 48 46 45 46 47 49 51 52 54 55 56 57 57 57 57 57 57 56 56 55
57 62 62 62 62 61 59 60 61 60 56 55 56 57 57 57 56 55 54 52 51 51 53 53 51 48 48 49 49 51 53 55 57 57 59 59 58 58 58 56 56 56 57 58 58 57 57 56 55 55 55 54 53 50 49 50 51 52 53 53 54 55 55 55 54 53 52 50 49 49 49 50 51 52 54 56 57 58 59 59 59 60 59 59 58 58
56 60 60 60 61 63 63 65 67 65 60 58 60 61 60 60 60 60 59 58 59 61 62 62 62 59 56 54 55 57 57 59 61 62 63 63 61 60 60 60 59 60 60 61 62 61 61 61 60 59 58 58 57 54 53 54 55 55 56 56 56 56 57 57 57 57 57 56 56 55 55 55 55 55 55 56 57 59 60 61 62 62 62 61 60 60
58 60 59 58 59 60 62 65 67 65 63 63 64 65 64 63 63 62 62 62 62 64 64 64 67 66 60 57 58 61 63 64 67 67 65 64 64 60 59 60 60 61 62 63 64 64 64 64 64 63 63 63 63 61 59 60 61 61 61 60 59 60 60 61 61 61 61 61 62 62 61 61 61 61 61 60 59 60 62 62 63 64 64 64 63 62
62 62 62 61 61 61 63 64 64 64 63 63 64 66 66 67 66 65 64 64 64 66 64 65 70 70 63 60 60 62 66 69 73 74 69 65 64 61 59 59 60 60 61 64 65 66 66 65 65 66 67 68 68 68 67 66 67 68 68 67 66 66 66 66 66 66 65 65 66 66 66 66 65 65 65 65 64 63 64 64 65 66 66 66 66 65
66 65 65 65 65 66 66 67 67 67 66 64 65 66 67 68 67 67 66 66 67 66 63 65 72 72 65 63 63 64 69 73 75 78 75 71 68 64 61 62 62 63 64 66 67 68 68 68 68 69 69 70 70 71 72 71 72 73 74 74 75 74 74 73 72 72 72 72 72 72 71 71 70 69 69 69 69 69 68 68 68 68 68 69 69 69
68 67 67 68 69 70 70 70 71 70 70 70 70 70 71 72 70 70 70 70 71 67 64 67 73 74 68 64 65 68 73 77 77 78 78 76 73 70 69 69 70 71 71 71 72 71 71 71 72 73 74 74 74 75 76 77 78 79 79 80 81 81 81 81 80 80 80 79 79 79 78 77 77 76 75 75 74 74 74 73 72 72 72 72 73 73
71 70 70 71 72 73 73 74 74 73 74 74 74 74 76 75 74 75 74 74 76 71 68 71 75 76 70 65 66 71 77 81 81 81 81 81 80 78 78 78 78 79 80 79 78 77 75 74 75 77 79 80 81 81 81 80 81 81 82 84 84 85 86 86 86 86 87 87 86 86 84 83 82 82 81 80 79 79 78 77 77 77 76 77 77 77
74 72 73 73 75 76 76 76 76 76 77 77 77 77 78 77 77 77 76 77 78 74 73 75 77 76 69 67 71 74 80 85 83 82 83 85 86 85 85 85 85 85 85 84 85 85 84 83 82 82 83 85 87 89 89 88 87 87 88 88 89 89 90 90 90 90 90 91 90 90 89 89 88 87 86 85 84 84 82 82 81 81 81 81 81 81
76 74 75 76 78 78 78 79 79 79 79 79 78 79 80 80 81 83 82 82 81 78 78 79 80 77 69 69 74 78 83 86 84 85 87 89 91 90 90 90 91 91 90 90 90 90 90 91 91 91 92 93 94 95 96 96 97 97 97 97 97 97 97 97 97 96 95 95 95 95 94 94 93 93 92 91 90 89 88 87 86 86 86 86 86 86
78 75 73 77 80 80 80 82 83 82 81 81 81 84 84 85 89 92 91 88 86 85 85 84 82 79 74 74 79 83 86 86 87 89 91 93 95 96 95 96 97 97 97 96 95 94 95 96 97 98 99 100 101 102 102 102 103 103 104 104 105 105 105 104 104 104 103 102 101 101 100 100 99 98 97 96 95 94 93 92 91 90 90 90 90 90
82 76 73 78 82 83 83 84 86 87 87 87 87 89 90 91 96 99 97 95 94 94 93 88 86 83 80 80 84 87 88 87 90 93 95 97 99 100 101 101 102 103 103 102 101 101 101 101 102 103 103 104 105 106 107 108 109 110 110 110 111 112 111 111 110 110 110 109 108 107 106 106 105 104 103 102 101 99 98 97 96 94 93 93 93 93
90 84 79 83 86 87 88 89 90 92 93 93 93 94 95 98 101 102 102 101 101 102 100 95 92 90 88 87 87 89 91 92 93 95 97 99 101 103 105 106 107 107 108 108 108 107 107 107 107 107 108 109 110 112 113 114 115 116 116 116 116 117 117 116 116 115 115 115 114 113 112 111 110 109 108 107 107 105 104 103 102 100 98 97 96 96
98 93 88 87 90 92 94 94 93 94 95 97 98 99 100 101 101 103 105 106 107 109 107 103 100 98 97 95 92 93 96 97 98 98 99 101 103 105 107 108 110 111 111 112 112 112 112 112 112 113 114 115 117 119 120 121 122 122 122 121 121 121 121 121 120 120 120 119 119 118 117 116 115 114 112 111 110 108 108 108 108 107 106 105 103 101
106 103 96 91 93 97 99 98 96 97 99 102 104 104 103 103 103 105 108 109 111 114 113 111 110 108 106 103 99 99 101 101 102 103 104 104 105 106 108 110 112 113 113 114 116 117 117 117 118 119 120 122 123 124 126 127 127 127 127 127 126 125 124 124 124 123 123 123 123 122 122 121 120 118 117 115 113 112 111 111 111 111 111 112 111 107
114 113 106 97 97 101 103 102 100 102 104 107 107 106 106 107 108 110 111 113 115 117 118 119 120 118 114 110 108 107 107 107 107 108 109 109 109 110 111 113 114 116 117 118 119 120 120 122 123 125 126 127 129 131 132 133 132 131 131 130 129 128 126 126 126 125 125 125 125 125 125 124 123 122 121 119 118 117 116 116 116 116 116 116 116 115
119 119 115 108 105 106 106 106 106 107 109 109 110 110 111 111 113 115 116 116 118 121 124 127 128 127 123 119 117 117 116 115 115 114 115 115 115 115 116 118 120 121 122 122 123 123 124 126 127 129 131 132 134 136 137 137 136 134 132 130 129 128 127 126 126 126 126 126 126 127 127 126 125 124 123 123 122 121 120 120 120 121 121 121 121 121
123 123 121 117 113 111 110 110 110 111 112 113 115 116 116 116 117 120 121 121 122 125 129 132 134 134 130 127 127 128 127 125 123 122 122 122 122 122 122 124 126 126 127 127 128 129 130 131 132 133 134 136 137 138 139 138 136 133 131 129 128 127 126 125 124 125 125 126 126 126 126 126 124 123 123 123 124 124 124 124 124 124 124 124 124 124
123 124 125 122 119 116 114 113 114 115 116 118 119 119 119 119 120 123 124 125 126 129 132 136 139 139 136 134 134 135 134 133 132 131 130 130 130 130 130 131 131 132 133 133 134 135 135 135 135 135 135 135 134 134 134 133 131 129 127 126 125 125 124 124 123 123 123 123 124 125 125 124 123 122 122 122 123 125 126 127 127 127 127 127 127 127
121 124 126 125 123 121 119 118 118 119 120 121 122 122 121 122 122 124 127 129 132 135 137 140 143 143 141 139 139 139 139 140 140 139 139 138 137 137 137 137 137 136 136 136 135 134 133 132 131 130 128 126 125 124 124 125 125 125 124 123 123 123 123 123 123 122 121 121 121 122 122 123 122 122 121 121 122 123 125 127 128 129 129 129 130 130
120 122 124 125 125 124 122 121 121 122 123 124 124 124 124 125 127 129 132 136 139 142 142 144 147 147 146 145 144 144 144 145 145 144 144 143 141 140 139 138 136 134 132 130 128 125 123 121 120 118 117 116 116 116 116 118 119 121 121 121 121 121 122 122 122 121 121 120 119 119 119 119 120 120 120 120 120 121 123 125 127 128 129 130 131 132
126 127 128 128 129 128 126 125 124 125 127 128 128 128 130 131 133 136 140 143 145 146 147 149 151 150 149 147 146 146 146 146 145 145 144 143 141 138 136 134 132 129 127 124 120 117 114 112 111 110 109 108 109 110 111 112 114 115 117 118 119 119 120 120 120 119 119 118 117 117 117 117 117 117 118 119 119 119 121 123 125 126 128 129 130 131
130 131 131 131 131 131 130 129 129 131 133 134 134 135 136 136 138 142 146 148 149 150 151 152 151 149 148 146 145 145 145 144 143 141 140 138 135 132 130 128 127 125 123 121 118 116 113 111 109 107 106 105 104 105 106 108 109 111 113 114 116 117 117 118 118 118 118 117 116 116 116 116 116 115 116 117 118 119 119 121 123 124 126 127 128 129
133 133 133 133 135 136 136 135 136 138 139 141 141 141 141 141 144 147 148 148 150 152 152 149 147 146 145 143 141 141 141 139 137 135 132 130 128 126 125 124 123 122 121 120 118 116 114 113 110 108 106 104 103 102 103 104 106 107 109 111 112 114 115 115 116 117 118 117 117 116 116 115 115 115 114 114 116 118 118 119 120 122 124 125 126 126
135 136 136 138 139 140 141 141 141 142 144 145 146 146 146 146 146 146 145 145 147 148 147 144 142 140 138 136 135 135 134 132 130 128 126 124 123 122 121 121 122 121 121 120 118 116 114 112 110 108 105 103 102 101 101 102 103 104 105 107 109 110 111 113 114 115 117 117 117 117 116 115 115 115 114 114 114 116 117 119 120 121 123 124 125 125
133 134 135 137 139 140 141 141 143 145 147 148 148 147 146 144 141 140 139 139 140 140 140 138 136 133 130 127 127 127 126 126 125 123 122 121 120 120 119 120 120 120 120 120 119 117 114 112 109 107 105 102 101 100 99 100 101 102 103 104 106 107 108 110 111 112 114 115 116 116 116 115 115 114 114 114 114 114 116 118 120 121 122 124 125 125
129 130 131 133 135 136 136 137 139 142 143 143 141 139 136 134 133 133 132 131 132 132 132 131 131 128 123 121 122 122 122 121 120 120 119 119 119 119 119 119 119 119 118 118 117 115 113 111 109 107 105 103 101 100 99 99 99 100 101 102 104 105 106 107 108 109 111 112 114 115 115 115 115 114 114 114 113 114 115 116 118 120 121 123 124 125
126 127 127 129 132 131 129 130 133 135 136 135 131 126 125 125 126 127 126 125 125 126 126 127 127 124 121 120 120 120 119 118 117 117 117 117 118 118 117 117 117 116 115 114 113 112 111 109 108 107 106 104 103 101 100 99 98 98 99 100 102 103 104 104 105 106 108 109 110 112 113 114 114 114 114 114 113 113 114 115 116 118 119 120 122 123
123 124 124 126 127 126 123 124 127 130 131 126 119 117 119 120 121 121 122 121 121 122 123 124 123 122 121 120 119 118 117 116 115 115 115 115 115 114 114 113 113 112 112 111 110 109 109 108 107 106 106 105 104 103 101 100 98 97 97 98 100 101 102 103 103 104 105 106 108 109 110 112 113 113 114 113 113 113 113 114 115 115 116 117 118 120
120 122 123 124 125 123 120 120 124 127 124 117 113 115 117 116 117 120 121 119 118 119 120 120 120 119 119 118 117 116 114 113 112 112 112 112 112 111 111 110 110 109 109 109 109 108 108 107 106 106 105 104 104 103 102 101 99 97 97 97 98 99 100 101 102 103 104 105 106 107 108 109 110 112 113 113 113 113 113 114 114 114 115 115 115 116
120 121 122 123 124 123 120 120 123 122 116 112 113 113 113 113 116 118 117 114 113 114 115 116 117 117 116 116 115 113 112 111 110 109 109 110 109 108 108 108 108 108 108 108 108 108 108 107 106 106 105 104 103 103 102 101 99 98 98 98 99 99 100 100 101 102 103 104 104 105 107 108 109 110 111 112 113 113 113 113 114 114 114 114 114 114
121 122 122 122 123 122 121 121 122 119 113 110 110 109 109 111 113 113 111 106 105 107 110 111 113 113 114 113 113 112 110 108 106 106 108 109 108 107 106 106 107 107 107 107 108 108 108 107 106 105 105 104 104 104 103 102 100 99 98 99 100 100 100 101 101 101 102 102 102 104 105 107 108 109 111 111 112 112 113 113 113 114 115 115 114 114
122 123 123 123 122 121 121 120 118 115 110 106 103 103 105 107 107 107 106 102 99 102 105 108 110 111 112 112 111 110 108 106 104 104 106 108 107 106 106 106 106 107 107 107 107 107 107 106 105 105 104 104 104 104 104 103 101 99 99 99 100 101 101 101 102 102 101 101 101 102 104 106 108 109 110 111 112 112 113 114 114 115 116 116 116 116
121 122 122 122 119 117 117 116 113 109 106 102 100 100 101 103 104 105 105 102 97 98 102 106 108 109 110 110 109 108 107 105 103 102 105 108 107 105 105 105 106 107 107 107 107 107 106 105 104 104 103 103 104 104 104 103 101 100 99 99 100 101 101 102 103 103 101 101 101 103 104 106 107 108 109 110 111 111 112 113 114 115 116 117 117 117
116 117 117 117 114 111 111 112 109 106 104 102 100 99 99 101 103 105 106 101 97 98 102 104 104 105 106 106 105 104 103 102 100 100 103 107 107 106 105 105 105 106 106 106 106 106 105 104 103 103 103 104 104 104 104 103 101 100 99 99 100 101 102 103 103 103 102 101 102 103 105 106 107 108 109 109 110 111 111 111 112 114 115 116 116 117
108 110 110 110 109 107 108 109 108 105 103 102 102 101 100 100 102 104 104 100 98 99 100 99 100 101 101 100 100 98 98 97 97 98 100 103 105 106 105 104 104 105 105 105 105 104 104 103 102 102 103 104 104 104 103 102 100 98 98 99 100 101 102 102 102 101 101 102 102 103 104 105 106 107 108 108 109 110 110 111 111 112 113 115 116 116
103 105 105 105 104 105 107 108 107 103 101 101 103 103 101 100 100 100 100 98 98 97 95 95 96 96 96 96 95 94 94 95 95 96 97 99 101 102 103 104 103 103 103 103 103 103 102 101 101 101 101 102 103 103 102 100 98 97 97 97 98 99 100 100 99 99 100 101 102 103 104 104 105 105 105 106 107 108 108 109 110 111 112 113 114 115
102 103 102 101 101 103 104 104 103 100 97 99 103 103 100 99 98 97 96 95 95 93 92 92 92 91 92 92 92 92 92 93 93 94 94 95 96 98 100 101 101 100 100 100 101 101 100 99 98 99 99 99 100 101 100 98 96 94 94 95 95 96 95 95 95 96 97 98 100 101 103 104 104 104 104 104 104 104 104 105 107 109 110 112 113 114
101 101 99 97 99 100 99 98 99 98 96 97 101 101 99 97 96 95 94 92 91 90 90 90 88 88 90 90 89 89 89 89 90 91 91 91 92 94 96 97 98 98 97 97 98 98 97 96 95 95 95 96 97 98 97 95 93 92 92 92 92 92 92 92 93 93 93 94 96 97 99 100 101 102 102 102 102 102 101 101 103 105 106 108 110 112
98 99 97 95 96 97 95 94 97 98 95 95 97 98 96 94 93 92 91 89 88 87 88 88 86 86 87 87 87 87 87 87 88 88 88 88 89 90 92 93 94 94 94 94 95 95 95 94 93 92 92 93 95 95 95 94 93 92 91 91 91 91 91 91 91 91 91 92 93 94 95 96 97 98 99 99 99 99 99 98 99 101 102 103 105 106
95 97 95 92 92 94 91 91 95 97 93 91 92 92 92 92 90 88 87 85 85 85 86 86 85 85 86 85 85 85 85 86 86 86 86 86 87 89 91 91 92 93 93 93 93 93 93 93 92 91 91 91 93 94 94 94 94 92 91 91 91 90 90 90 90 91 91 91 92 93 94 94 95 96 97 98 98 98 97 96 98 99 99 100 101 101
93 94 92 89 90 90 88 89 95 95 89 87 88 89 90 89 87 85 83 82 82 83 85 85 84 84 85 85 84 84 85 85 85 85 85 86 87 89 90 91 91 92 93 93 93 92 92 91 90 89 89 89 91 93 94 94 94 93 91 90 89 89 89 89 89 89 90 91 92 93 93 94 94 95 96 97 97 97 96 95 96 96 97 98 99 99
92 91 88 87 89 89 86 88 95 94 86 84 86 87 88 87 85 84 83 81 81 82 83 83 83 83 83 84 83 83 83 84 84 84 85 86 88 89 89 90 91 91 92 92 92 90 89 89 88 88 88 89 90 92 92 93 93 92 90 88 87 87 86 86 87 88 88 89 91 91 92 92 92 93 94 95 96 96 95 95 94 94 94 95 97 98
93 89 86 87 88 86 84 87 93 92 84 82 86 87 87 87 85 84 83 81 80 80 80 81 82 83 83 84 83 83 82 83 84 84 85 87 88 88 89 89 90 91 91 91 90 89 88 88 88 88 89 89 90 90 90 89 89 88 87 85 84 84 82 82 83 84 84 86 88 88 89 89 90 90 92 93 94 94 94 94 93 92 91 92 94 96
92 87 85 86 84 83 85 88 91 88 82 81 85 87 87 85 85 84 84 83 81 80 80 80 81 82 83 83 83 83 83 83 84 85 86 87 88 88 89 89 90 90 91 90 89 89 88 88 88 88 88 88 88 87 86 85 85 85 84 83 82 81 80 79 80 80 81 82 83 84 84 85 86 87 88 89 91 91 92 92 92 91 89 89 91 92
90 84 83 85 81 79 83 87 89 86 81 79 84 86 85 84 84 83 83 83 81 81 81 82 83 83 83 83 83 83 83 84 85 86 86 87 88 88 88 89 89 89 89 88 87 87 87 87 87 86 85 85 84 82 81 81 81 82 81 80 79 79 78 78 78 78 78 78 79 79 80 81 82 83 85 86 86 87 88 89 89 89 88 88 89 89
89 83 82 83 80 78 81 85 88 86 81 79 82 85 84 83 83 83 83 82 82 82 83 84 84 84 83 83 83 83 83 84 85 86 86 86 87 87 87 87 87 86 85 84 83 83 84 84 84 83 82 81 80 78 77 78 78 78 77 77 77 77 77 77 76 76 76 76 75 76 77 78 79 80 81 82 83 83 84 85 85 85 85 85 85 86
Wind_Direction
264 264 265 263 261 264 265 264 263 262 261 262 264 265 266 266 266 266 266 268 268 267 265 265 264 263 260 258 261 266 271 273 273 271 270 271 272 273 273 274 274 275 275 275 276 276 275 275 275 275 275 277 278 279 280 280 281 282 281 279 278 278 278 277 275 274 273 273 273 272 272 271 271 270 269 269 269 269 269 269 268 267 266 265 266 267
263 265 264 262 263 266 266 265 265 262 260 261 263 264 266 267 266 266 267 268 267 265 261 260 262 265 266 264 262 264 267 269 269 270 270 269 269 271 273 274 273 274 274 275 275 275 275 275 274 275 275 274 274 274 275 276 278 279 280 280 279 279 279 280 279 278 276 275 275 274 273 273 273 272 271 270 269 269 269 269 269 268 267 266 265 265
264 265 263 262 264 265 265 266 267 264 262 263 264 265 267 266 266 268 270 270 268 266 263 261 260 262 265 267 267 268 268 267 267 267 270 270 268 268 271 273 274 274 275 275 276 276 275 274 274 274 274 273 272 271 271 272 274 275 277 277 278 278 278 278 279 279 278 277 276 276 275 275 275 275 273 272 271 270 270 270 269 269 269 268 266 265
266 265 263 263 264 263 264 266 267 266 264 265 266 267 266 264 266 269 271 272 272 269 266 263 262 262 264 265 266 267 267 268 268 268 269 270 269 268 269 271 273 274 275 275 276 277 276 275 275 275 275 274 273 272 272 271 271 271 272 272 272 273 274 275 275 276 276 276 276 276 277 277 277 277 276 275 274 272 271 271 270 270 269 269 268 267
269 267 265 266 265 264 265 265 266 266 266 267 268 268 267 266 268 270 270 271 272 274 275 271 266 265 267 266 265 265 265 265 266 268 270 270 271 271 270 269 270 273 275 275 275 276 276 276 276 276 276 275 275 274 273 271 269 269 268 269 269 269 269 270 271 272 273 274 275 276 277 278 278 278 278 278 277 275 274 273 272 271 270 269 268 267
272 270 269 269 268 268 267 266 267 267 268 269 269 268 267 268 269 270 271 270 269 274 280 280 275 273 273 272 270 268 268 266 266 265 267 269 270 272 271 269 269 271 273 275 275 275 276 276 276 276 276 276 275 274 273 270 269 267 267 267 268 268 268 268 268 269 270 270 271 272 274 275 276 277 278 278 278 278 277 276 274 272 271 269 268 267
275 274 273 273 272 271 270 270 269 269 269 269 268 267 267 268 269 270 270 270 271 274 278 280 279 277 275 274 273 272 271 271 270 266 264 265 266 269 271 272 271 271 271 273 274 275 275 276 275 275 275 275 274 273 273 272 271 269 269 269 268 268 268 268 268 269 269 270 270 270 270 271 272 272 274 275 276 277 277 277 275 274 272 270 268 267
276 275 276 275 274 274 274 272 272 273 272 270 268 268 268 268 268 268 269 270 271 273 276 279 280 278 276 273 271 271 273 275 276 272 268 266 264 263 267 271 273 273 273 273 273 273 274 276 277 278 277 277 276 275 274 274 274 273 271 270 270 270 270 269 268 268 269 270 271 271 271 271 271 271 272 272 273 273 274 275 275 274 273 271 270 268
275 275 275 275 275 274 274 274 275 275 274 272 271 270 270 269 269 268 268 269 269 271 274 276 276 276 277 275 272 272 275 278 279 277 274 271 268 263 261 264 267 270 273 275 276 275 274 275 276 278 279 279 279 278 277 276 276 275 275 273 272 271 270 269 268 267 268 269 269 270 270 270 270 270 270 271 271 270 270 271 272 272 272 271 270 269
274 274 275 275 274 274 274 274 274 273 273 273 271 271 270 270 270 270 269 269 269 270 272 273 273 274 274 275 276 275 275 276 277 278 278 277 275 271 267 265 266 266 267 269 272 274 275 276 276 275 276 277 277 277 277 277 277 277 277 277 276 275 274 272 270 268 268 268 268 269 270 270 271 271 270 270 269 268 268 268 268 268 269 269 269 269
274 274 275 275 274 274 275 274 274 274 274 272 270 270 269 269 270 270 270 270 269 269 270 270 271 272 272 273 275 275 275 276 277 279 280 280 279 278 277 276 275 275 273 271 269 269 270 272 275 277 278 278 278 277 278 278 279 279 279 280 279 279 279 277 276 274 273 272 271 270 270 270 271 272 271 271 270 269 268 266 266 265 266 266 266 267
272 273 274 274 275 275 275 275 275 275 274 273 272 272 271 271 270 270 270 270 270 269 268 268 269 271 272 274 275 274 275 276 277 278 281 283 283 283 283 282 282 281 281 280 278 276 273 271 271 274 277 279 280 280 279 278 278 278 278 279 279 279 278 278 278 278 277 277 276 275 274 273 272 271 270 270 270 269 268 267 266 265 264 264 264 265
270 271 272 273 274 275 274 274 275 274 274 274 274 274 274 273 273 272 271 271 271 271 270 270 270 271 274 276 275 275 274 275 277 280 282 283 283 283 283 283 283 283 283 282 283 282 281 278 275 274 275 277 279 280 281 281 280 279 278 278 278 277 276 275 275 274 274 275 275 276 276 275 274 273 271 269 269 268 267 267 267 266 265 265 264 264
267 267 269 271 272 273 274 274 274 273 273 274 275 276 277 277 278 277 274 273 274 274 273 272 272 273 275 275 274 273 273 275 278 282 283 283 283 283 282 283 284 284 284 282 282 282 283 283 282 280 280 280 280 280 282 282 283 283 282 281 280 279 278 277 275 273 272 271 272 272 272 272 272 272 272 270 269 268 267 267 266 266 266 265 265 265
269 267 269 271 273 273 274 275 275 276 276 278 279 281 281 282 281 279 278 278 279 278 276 275 276 277 277 276 275 274 274 276 278 280 281 282 283 283 284 284 284 285 284 283 282 281 281 282 282 282 282 282 282 282 282 283 283 283 283 282 281 280 279 279 277 276 274 273 272 272 272 271 271 271 270 270 269 268 267 267 266 266 266 265 265 265
274 272 272 274 275 276 276 277 279 280 280 282 282 283 283 283 281 281 282 283 282 281 280 280 280 280 278 276 275 275 276 276 277 278 278 279 281 283 284 284 284 284 285 284 283 283 282 282 282 282 282 282 282 282 282 283 282 282 282 282 281 280 280 279 278 277 276 275 274 273 273 272 272 271 270 270 269 268 266 265 265 264 265 265 265 264
279 277 276 276 276 277 278 279 280 281 282 283 283 282 281 281 281 283 284 285 285 284 283 283 282 282 280 277 277 277 277 277 277 276 276 277 279 280 282 283 284 285 285 285 284 283 283 283 282 282 282 282 282 282 282 282 282 281 281 280 280 279 279 278 278 277 276 276 275 274 273 273 272 271 270 270 269 269 267 266 265 264 263 264 264 264
282 280 278 277 278 278 278 278 279 280 281 280 279 278 278 279 281 283 283 284 284 284 284 285 284 283 282 282 281 278 276 278 279 278 276 276 276 276 278 280 281 282 283 283 283 283 283 283 283 283 282 282 282 281 281 281 281 280 280 279 278 278 277 277 277 276 276 275 274 273 273 272 271 270 270 268 267 267 266 266 265 265 264 264 264 264
283 282 279 278 279 278 278 278 279 280 280 279 278 279 280 281 282 282 282 283 283 284 286 286 286 285 285 285 285 281 279 281 281 279 277 275 274 273 274 276 276 278 279 279 281 282 283 283 282 282 282 281 281 281 280 280 280 280 279 278 277 276 275 275 275 274 274 274 273 272 272 271 270 269 268 267 266 265 264 264 263 263 264 264 265 264
284 283 282 280 279 279 279 280 281 281 280 280 281 282 283 284 284 283 283 284 284 286 287 287 287 287 287 287 286 285 284 283 281 280 277 275 274 272 272 272 273 274 276 277 278 279 279 280 280 280 280 280 280 279 279 279 279 278 278 277 276 275 274 273 273 272 272 272 271 271 270 269 269 268 267 266 264 263 263 262 262 262 262 263 264 264
283 283 283 281 280 280 281 282 282 282 282 284 284 285 285 285 285 284 284 285 286 287 287 287 288 289 289 289 289 288 286 284 282 280 278 276 275 274 273 272 272 273 274 275 275 275 276 276 277 278 278 278 278 278 278 278 277 277 275 274 274 273 272 271 271 271 270 270 269 269 269 268 267 266 265 264 263 262 261 261 261 261 261 262 263 263
282 283 283 282 281 281 281 282 283 284 285 286 286 285 285 285 285 284 285 287 287 286 287 287 288 290 291 291 291 289 287 285 283 281 279 278 277 276 275 274 274 273 273 273 273 273 274 275 275 275 276 276 276 276 276 276 275 274 273 272 271 271 270 269 269 269 269 269 268 268 267 266 265 264 263 262 261 261 260 259 259 260 260 261 261 262
281 282 282 283 283 283 283 284 284 285 285 285 284 284 284 283 283 284 285 286 286 285 286 287 288 290 291 290 289 287 286 285 283 282 281 280 279 278 277 276 275 274 273 273 273 273 274 274 274 274 274 274 274 274 274 274 273 272 271 270 270 269 269 268 268 267 267 267 267 267 267 266 265 264 262 261 260 259 258 258 258 258 258 259 260 260
279 280 281 282 283 283 284 284 284 284 283 283 283 283 282 282 283 283 284 285 284 284 285 286 287 288 288 287 286 285 284 283 283 282 281 281 280 279 279 278 277 276 276 275 275 274 274 274 274 274 273 273 272 272 271 271 271 271 270 270 269 269 268 268 267 267 266 265 265 265 265 265 265 264 262 261 260 259 258 257 256 256 256 257 258 259
275 276 277 278 279 280 280 280 280 280 280 280 280 280 280 280 281 281 282 282 282 283 285 285 285 286 286 285 284 283 283 282 282 282 282 282 281 281 281 280 279 278 278 277 276 275 275 274 273 273 272 271 271 270 269 269 269 270 270 269 269 269 268 268 267 267 266 265 264 264 263 263 263 263 263 262 260 259 258 257 257 256 256 256 256 257
271 272 273 274 275 276 276 276 276 275 275 275 275 276 276 277 278 279 280 280 282 283 284 283 283 284 284 283 283 282 282 282 282 282 282 282 282 282 281 281 280 280 279 278 278 277 275 274 273 272 271 270 269 269 268 268 268 268 268 268 268 268 268 267 267 266 265 265 264 264 263 262 262 262 261 261 260 259 258 258 257 257 256 256 256 257
269 270 270 271 272 273 273 274 274 274 273 273 273 274 274 275 276 277 279 281 282 282 282 282 282 282 282 281 281 282 282 282 281 281 281 282 282 281 281 280 280 280 279 279 278 278 277 276 274 273 271 270 269 268 267 266 266 266 266 266 266 266 266 266 266 266 266 265 264 263 263 262 262 261 260 260 259 258 257 257 257 257 257 257 257 257
268 268 269 269 270 271 271 272 272 272 273 273 273 273 273 274 275 277 279 280 281 281 280 281 281 280 280 281 281 281 281 281 281 281 281 281 281 281 281 280 280 279 279 278 277 277 276 275 275 273 272 271 269 267 266 265 264 264 264 264 264 264 264 264 264 265 265 265 264 263 263 262 262 261 260 259 258 257 257 256 257 257 257 257 257 257
268 268 269 269 270 270 271 271 272 272 272 272 273 274 274 276 277 278 279 280 280 279 279 279 279 279 280 280 280 280 280 280 280 280 280 280 280 280 280 280 280 279 279 278 278 277 276 276 275 274 273 271 269 268 266 265 263 262 262 261 261 261 262 262 263 263 263 263 263 263 263 262 262 261 260 259 258 257 256 256 256 256 257 257 257 257
270 270 270 270 270 271 271 271 272 272 272 273 274 275 276 278 279 279 279 279 279 279 279 279 279 279 279 279 280 280 280 280 280 280 280 280 279 279 278 278 278 278 278 278 278 278 278 277 276 275 273 272 270 268 266 264 263 262 261 261 260 260 260 260 260 261 262 262 262 262 262 262 261 261 261 260 258 257 257 256 256 255 255 256 257 258
273 273 273 273 273 272 273 273 273 273 274 274 275 276 278 279 279 279 278 278 278 279 279 279 279 279 280 280 279 279 278 278 279 279 279 279 278 278 277 277 277 277 277 277 277 277 277 277 276 275 274 272 271 268 266 265 263 262 262 261 260 260 259 259 259 259 259 260 261 261 262 261 261 261 261 260 259 258 257 257 256 256 255 255 256 257
275 275 275 275 275 275 275 275 275 275 275 275 276 278 279 279 279 278 278 278 278 279 279 279 280 280 280 279 278 278 278 278 278 278 277 277 277 277 277 277 277 277 277 277 277 277 277 276 276 275 274 273 271 270 268 266 264 263 263 262 261 261 260 259 259 258 258 258 259 260 261 261 261 261 261 260 260 260 259 258 257 257 256 256 256 256
277 277 277 276 276 276 276 276 277 276 276 277 279 279 279 278 278 279 279 278 279 279 279 279 280 280 279 278 278 278 277 277 277 277 276 276 276 276 277 277 277 277 277 277 277 276 276 275 275 274 273 273 272 271 270 268 266 265 263 263 262 261 261 260 260 259 258 258 258 259 259 260 260 261 261 260 260 260 260 260 259 258 257 257 257 256
277 278 278 278 278 277 277 276 276 276 277 279 280 279 278 279 279 279 278 278 279 279 279 279 278 278 277 277 277 276 276 276 276 276 276 276 276 277 277 277 277 277 277 277 277 276 276 275 274 274 273 273 273 272 271 270 269 267 265 264 263 262 261 261 260 260 259 259 258 258 258 259 259 259 260 260 260 259 259 259 259 259 259 258 257 257
278 278 278 278 278 278 278 277 277 277 279 280 280 279 279 279 278 277 277 277 278 278 278 277 276 276 276 276 276 275 275 275 275 276 277 277 276 277 277 277 277 277 277 276 276 276 275 275 275 274 274 274 273 273 272 271 270 269 268 267 265 264 262 261 260 260 260 259 259 259 259 258 258 258 259 259 259 259 259 258 258 259 259 258 258 257
279 279 279 278 279 279 279 279 279 280 280 280 280 280 279 278 277 277 277 276 276 276 276 275 275 275 275 275 275 275 275 276 276 277 277 277 277 277 277 276 276 276 275 275 275 274 274 274 274 274 274 274 274 273 272 271 270 270 269 268 267 266 265 264 263 261 261 260 260 260 259 259 258 258 257 257 258 258 258 258 258 258 258 258 258 258
280 280 280 280 280 280 280 280 280 281 281 280 280 280 278 278 277 277 276 275 274 274 274 274 274 274 274 275 275 276 276 277 277 277 277 277 276 276 276 276 275 275 275 274 274 274 274 274 274 274 274 274 273 273 272 272 271 270 269 269 268 267 267 266 265 264 263 262 261 261 260 260 259 258 257 257 256 256 256 257 257 257 257 258 258 258
280 280 281 281 281 281 281 281 281 281 281 281 280 279 278 278 278 277 275 274 273 273 273 273 273 273 274 275 276 276 277 277 278 278 277 277 277 276 275 275 275 275 275 274 274 274 274 274 274 274 274 274 273 273 272 272 271 271 270 270 269 268 267 267 266 265 264 264 263 262 261 260 260 259 258 258 257 256 255 255 255 255 256 256 256 257
280 280 280 281 281 282 282 282 282 282 281 281 280 280 279 279 278 277 276 276 276 275 273 273 273 274 274 275 276 277 278 278 278 278 278 277 277 277 276 275 275 275 275 275 275 275 275 275 275 275 275 274 273 273 272 272 272 271 271 270 270 269 268 267 267 266 266 265 264 263 262 261 260 260 259 259 258 257 256 256 255 255 255 255 255 255
279 279 280 280 282 282 282 282 282 281 282 282 282 281 279 278 277 277 277 278 277 275 275 276 276 276 276 277 277 278 278 278 277 276 275 276 276 276 276 276 275 275 275 275 276 276 276 275 275 275 275 275 274 274 273 273 273 272 272 271 270 270 269 269 268 268 268 267 266 264 263 262 261 260 259 259 258 258 258 257 256 255 255 255 255 255
279 279 279 280 281 281 281 280 281 281 283 283 282 281 279 278 277 277 278 278 277 277 278 278 278 278 279 279 278 278 277 276 275 274 274 274 275 276 276 276 276 276 276 276 276 276 276 276 276 276 276 276 276 276 275 275 274 274 273 272 271 270 270 270 270 269 269 268 267 266 265 264 263 262 260 260 259 258 257 257 257 256 255 255 255 255
279 278 279 279 279 279 279 280 281 282 282 281 280 280 279 279 279 278 279 279 279 280 280 279 279 279 279 278 277 277 276 276 275 275 275 275 275 276 276 276 276 277 277 277 277 277 277 277 277 277 277 277 277 277 277 277 276 276 275 274 273 272 272 271 270 270 269 268 267 267 266 266 265 264 263 262 260 259 257 257 256 256 256 255 255 255
279 279 279 279 279 279 279 280 281 281 280 279 279 279 279 280 280 281 281 281 281 281 281 280 280 279 278 278 277 277 276 276 276 276 276 276 276 276 276 276 276 277 277 277 277 277 278 278 277 277 278 278 278 278 278 278 278 277 276 275 274 274 273 272 271 270 269 268 267 267 267 266 266 266 265 264 263 262 261 259 258 257 256 255 255 255
279 280 280 280 280 280 280 280 280 279 278 278 278 279 280 281 281 281 282 282 283 282 282 281 280 279 279 278 278 278 278 277 277 277 277 277 277 277 276 276 277 277 277 277 277 278 278 278 278 278 278 279 279 279 279 279 278 277 276 276 275 274 273 272 272 271 270 269 268 268 267 267 267 266 266 265 264 264 263 261 260 259 258 256 255 254
281 281 281 280 280 280 280 280 279 278 277 278 279 280 280 280 281 281 282 282 282 282 281 281 280 280 279 279 279 279 279 279 279 279 278 278 278 277 277 277 277 277 277 278 278 278 278 279 279 279 279 279 279 279 279 278 277 276 275 275 275 274 274 273 273 272 272 271 270 269 268 268 267 266 266 265 264 263 262 261 260 259 259 258 257 255
282 282 281 281 280 280 280 279 278 278 280 281 281 281 281 281 281 282 281 281 280 280 280 280 280 280 280 280 280 279 279 279 279 279 279 279 278 277 277 277 278 278 278 278 278 278 279 279 280 280 279 279 278 278 278 277 277 276 276 275 275 275 275 274 274 273 272 271 270 269 268 268 267 266 266 265 264 263 262 261 259 258 258 258 258 256
282 281 281 281 280 280 281 281 280 281 282 283 282 282 282 282 282 281 281 280 280 280 280 280 280 280 280 280 279 279 279 279 279 279 279 279 278 278 278 278 278 279 279 279 279 279 280 280 281 280 280 279 278 277 277 277 277 277 277 277 276 275 274 274 273 272 271 270 269 268 268 267 266 266 265 265 265 264 263 262 260 259 258 257 257 257
281 280 281 280 280 282 283 281 280 281 283 284 283 283 282 282 282 282 282 281 281 281 281 281 281 281 280 280 280 280 280 280 280 280 280 279 279 279 280 280 280 280 280 281 282 282 283 283 282 281 280 279 279 278 278 279 279 279 279 278 277 275 274 273 272 271 270 269 268 268 267 267 266 266 265 265 265 265 265 264 263 262 260 259 258 257
280 281 281 281 281 283 283 281 281 282 284 284 282 282 282 282 283 283 283 283 283 283 282 281 281 281 280 281 281 281 281 281 281 280 280 280 280 281 281 281 281 282 282 283 284 285 285 284 282 281 281 280 280 280 280 281 281 280 279 278 278 277 276 274 273 271 270 269 268 268 268 267 267 266 266 265 265 265 265 265 265 264 263 261 260 259
280 281 282 281 282 283 283 282 282 283 283 282 281 281 282 283 283 283 284 284 284 284 283 282 281 281 281 281 282 281 281 281 281 280 280 280 281 281 281 282 282 283 283 284 284 284 284 283 282 281 281 281 281 281 281 281 280 279 279 279 278 278 277 275 274 273 271 271 270 269 268 268 267 266 266 266 265 265 265 264 264 264 263 262 261 260
281 282 282 283 283 283 282 282 282 282 283 282 282 282 283 284 284 284 284 284 284 283 283 282 282 282 282 282 282 282 282 281 281 281 281 281 282 282 282 282 282 283 283 284 284 283 282 282 282 282 282 282 282 281 281 280 279 278 279 279 278 278 277 276 275 274 273 272 271 270 269 268 267 267 266 266 265 265 265 264 264 263 263 262 261 261
Height
10747 10749 10749 10741 10736 10740 10743 10742 10743 10744 10745 10744 10744 10745 10746 10746 10746 10743 10742 10742 10743 10746 10745 10741 10741 10742 10740 10739 10736 10733 10729 10724 10721 10720 10720 10717 10714 10712 10713 10713 10712 10710 10709 10709 10713 10715 10717 10718 10718 10718 10719 10720 10720 10720 10720 10719 10718 10718 10717 10716 10715 10714 10713 10713 10713 10712 10711 10710 10709 10708 10707 10705 10704 10704 10703 10702 10701 10701 10701 10700 10701 10701 10700 10701 10701 10701
10740 10745 10741 10731 10731 10736 10735 10734 10736 10737 10738 10738 10739 10739 10740 10739 10739 10738 10737 10738 10738 10740 10740 10737 10737 10736 10734 10733 10732 10728 10725 10719 10714 10712 10712 10711 10709 10707 10707 10707 10706 10705 10703 10704 10707 10710 10711 10712 10712 10712 10713 10714 10714 10714 10714 10713 10713 10712 10711 10710 10709 10709 10708 10707 10707 10707 10706 10706 10705 10704 10702 10701 10700 10699 10698 10697 10696 10695 10695 10694 10694 10694 10693 10694 10695 10695
10737 10739 10729 10723 10728 10729 10727 10727 10728 10730 10731 10731 10732 10734 10734 10732 10732 10733 10731 10731 10733 10734 10734 10733 10733 10732 10729 10728 10727 10723 10719 10714 10709 10707 10705 10703 10703 10704 10704 10702 10701 10699 10698 10699 10702 10704 10705 10705 10705 10705 10706 10706 10706 10707 10707 10706 10706 10705 10704 10704 10703 10702 10702 10701 10701 10701 10700 10700 10699 10699 10698 10696 10696 10694 10693 10692 10690 10689 10689 10688 10687 10687 10687 10687 10688 10688
10732 10729 10720 10718 10722 10721 10720 10720 10720 10722 10723 10724 10724 10726 10727 10724 10725 10728 10726 10725 10726 10727 10728 10728 10727 10727 10724 10723 10722 10717 10712 10708 10704 10701 10699 10696 10696 10699 10700 10699 10697 10695 10693 10694 10696 10697 10697 10698 10698 10698 10697 10697 10698 10699 10699 10699 10698 10698 10697 10696 10696 10695 10694 10694 10694 10694 10694 10693 10693 10692 10691 10691 10690 10689 10688 10687 10685 10684 10683 10682 10681 10680 10680 10680 10680 10680
10723 10717 10713 10714 10713 10713 10714 10713 10711 10712 10714 10716 10716 10716 10717 10716 10718 10720 10720 10720 10720 10720 10721 10722 10722 10722 10720 10718 10717 10711 10706 10703 10700 10696 10692 10690 10691 10693 10695 10695 10694 10692 10688 10688 10689 10690 10689 10689 10690 10689 10689 10689 10690 10690 10690 10690 10690 10690 10689 10688 10688 10688 10687 10687 10686 10686 10686 10686 10685 10685 10684 10684 10683 10682 10681 10680 10679 10679 10678 10677 10675 10674 10673 10673 10673 10672
10712 10706 10706 10707 10705 10705 10707 10704 10701 10702 10707 10709 10706 10705 10706 10707 10709 10710 10712 10714 10714 10713 10714 10714 10715 10717 10716 10713 10710 10705 10700 10697 10695 10691 10687 10686 10687 10687 10688 10689 10689 10687 10685 10682 10682 10682 10680 10680 10681 10681 10680 10680 10680 10682 10681 10681 10681 10681 10681 10681 10680 10680 10680 10679 10679 10679 10678 10678 10677 10677 10676 10676 10676 10675 10674 10673 10673 10672 10672 10671 10669 10667 10666 10665 10665 10664
10702 10696 10697 10700 10698 10696 10697 10694 10689 10692 10700 10701 10696 10695 10696 10698 10700 10701 10702 10704 10706 10707 10707 10706 10705 10708 10710 10708 10704 10698 10693 10690 10686 10683 10682 10682 10684 10684 10682 10682 10682 10681 10680 10677 10676 10674 10672 10671 10671 10672 10672 10671 10671 10672 10672 10671 10672 10673 10672 10673 10673 10672 10672 10671 10671 10671 10670 10670 10669 10669 10668 10667 10667 10666 10666 10666 10665 10665 10664 10664 10662 10660 10659 10658 10657 10657
10692 10689 10689 10690 10689 10688 10686 10682 10680 10684 10689 10689 10687 10685 10686 10688 10689 10691 10693 10695 10697 10698 10699 10700 10694 10694 10702 10702 10697 10691 10685 10682 10676 10671 10674 10676 10678 10681 10681 10678 10676 10673 10671 10670 10669 10668 10666 10664 10662 10662 10662 10662 10662 10663 10664 10662 10661 10662 10663 10663 10664 10663 10663 10663 10663 10663 10662 10661 10660 10660 10659 10659 10658 10658 10657 10656 10657 10656 10655 10655 10654 10653 10652 10651 10650 10649
10682 10682 10681 10680 10680 10678 10675 10672 10672 10674 10675 10677 10677 10675 10675 10676 10677 10680 10683 10685 10687 10688 10693 10693 10682 10681 10693 10694 10688 10683 10676 10672 10666 10659 10664 10667 10669 10674 10677 10674 10671 10668 10665 10662 10660 10660 10660 10659 10658 10656 10654 10653 10652 10652 10653 10654 10651 10651 10651 10651 10652 10653 10653 10653 10653 10653 10652 10652 10651 10650 10650 10650 10649 10649 10648 10647 10647 10646 10646 10646 10645 10644 10644 10643 10642 10642
10672 10674 10673 10672 10670 10666 10665 10664 10663 10662 10663 10666 10666 10665 10664 10663 10666 10669 10672 10674 10675 10678 10685 10683 10671 10670 10683 10686 10682 10676 10666 10660 10656 10651 10653 10657 10660 10666 10668 10666 10664 10661 10659 10655 10653 10651 10650 10651 10651 10649 10648 10646 10644 10643 10642 10643 10641 10640 10639 10638 10637 10638 10639 10640 10641 10642 10641 10642 10641 10641 10640 10640 10639 10639 10639 10638 10637 10636 10635 10636 10635 10635 10635 10634 10634 10633
10663 10665 10664 10662 10659 10656 10655 10653 10652 10652 10652 10652 10652 10653 10651 10651 10655 10656 10660 10661 10660 10668 10674 10669 10660 10659 10671 10680 10677 10668 10655 10648 10647 10644 10643 10646 10651 10655 10656 10654 10652 10648 10647 10646 10644 10643 10642 10642 10641 10639 10638 10637 10636 10635 10633 10633 10632 10630 10629 10627 10625 10623 10623 10623 10624 10625 10626 10627 10629 10629 10629 10630 10629 10629 10628 10627 10626 10626 10625 10625 10625 10624 10624 10624 10623 10623
10653 10655 10654 10652 10648 10646 10644 10642 10642 10642 10640 10639 10639 10640 10638 10640 10643 10643 10647 10646 10644 10654 10660 10655 10650 10649 10662 10672 10666 10658 10647 10637 10637 10637 10637 10637 10638 10642 10641 10639 10638 10635 10633 10633 10631 10631 10631 10631 10630 10628 10627 10625 10624 10624 10624 10623 10622 10621 10619 10618 10616 10613 10612 10610 10609 10608 10608 10609 10610 10611 10613 10615 10617 10617 10616 10616 10615 10614 10614 10614 10613 10613 10613 10612 10612 10612
10644 10645 10643 10641 10638 10635 10632 10631 10631 10629 10627 10626 10627 10627 10625 10627 10629 10629 10632 10630 10629 10639 10643 10640 10638 10641 10658 10662 10652 10646 10635 10625 10630 10632 10629 10626 10625 10628 10628 10625 10623 10622 10621 10620 10619 10618 10617 10616 10616 10615 10614 10613 10611 10610 10610 10611 10611 10610 10609 10608 10608 10605 10603 10602 10600 10599 10598 10596 10596 10596 10597 10598 10600 10601 10602 10603 10603 10603 10602 10602 10602 10602 10601 10601 10600 10601
10634 10636 10635 10630 10627 10625 10622 10620 10618 10616 10616 10615 10616 10615 10612 10614 10613 10610 10613 10614 10617 10625 10626 10626 10626 10633 10649 10650 10638 10632 10622 10616 10623 10623 10616 10612 10610 10611 10613 10612 10609 10609 10609 10607 10606 10605 10604 10603 10601 10599 10598 10597 10597 10596 10596 10596 10596 10596 10596 10595 10595 10594 10592 10591 10589 10589 10588 10587 10587 10587 10587 10586 10586 10586 10587 10587 10588 10589 10589 10589 10590 10589 10589 10588 10588 10588
10620 10627 10630 10621 10614 10614 10613 10608 10604 10604 10605 10605 10606 10602 10600 10603 10594 10586 10592 10599 10604 10608 10608 10613 10617 10623 10635 10635 10624 10616 10612 10612 10614 10609 10603 10599 10595 10594 10596 10597 10594 10593 10593 10592 10592 10592 10590 10590 10587 10585 10583 10581 10581 10580 10580 10580 10580 10580 10580 10580 10579 10578 10578 10577 10575 10575 10574 10574 10575 10574 10574 10574 10574 10574 10573 10573 10573 10574 10575 10575 10575 10575 10574 10574 10574 10575
10604 10616 10624 10613 10603 10602 10601 10598 10594 10591 10592 10594 10594 10590 10589 10587 10575 10568 10574 10582 10585 10584 10589 10600 10605 10610 10618 10618 10610 10602 10603 10606 10600 10594 10591 10585 10582 10580 10579 10580 10578 10576 10576 10575 10576 10576 10575 10574 10573 10571 10570 10568 10566 10564 10563 10563 10563 10563 10563 10563 10563 10561 10560 10560 10559 10558 10558 10558 10559 10559 10559 10559 10559 10559 10559 10558 10558 10559 10560 10560 10560 10560 10559 10560 10560 10561
10590 10602 10611 10603 10594 10591 10589 10589 10586 10580 10579 10580 10579 10577 10575 10569 10563 10560 10559 10563 10563 10558 10566 10581 10587 10592 10598 10599 10599 10592 10588 10592 10587 10581 10579 10574 10570 10566 10563 10562 10560 10560 10559 10558 10558 10558 10557 10557 10556 10555 10554 10553 10552 10549 10546 10545 10543 10544 10545 10546 10546 10544 10543 10542 10542 10541 10540 10540 10540 10541 10542 10543 10543 10543 10543 10543 10542 10543 10544 10543 10543 10544 10544 10544 10545 10546
10572 10582 10594 10594 10586 10580 10576 10577 10577 10574 10570 10565 10562 10561 10560 10558 10558 10553 10545 10545 10545 10536 10542 10558 10565 10571 10575 10580 10589 10582 10571 10573 10572 10567 10565 10561 10556 10552 10549 10547 10544 10543 10542 10541 10540 10539 10539 10540 10539 10538 10537 10535 10534 10532 10530 10528 10525 10524 10525 10527 10528 10528 10527 10525 10523 10523 10521 10521 10521 10521 10523 10524 10526 10526 10526 10527 10526 10527 10527 10526 10526 10527 10527 10527 10529 10531
10554 10556 10572 10584 10577 10565 10560 10563 10567 10566 10558 10549 10544 10545 10547 10546 10546 10541 10532 10529 10526 10518 10522 10531 10536 10545 10552 10562 10570 10564 10557 10560 10557 10551 10547 10543 10541 10538 10535 10533 10529 10527 10526 10525 10524 10523 10523 10522 10521 10519 10518 10517 10515 10513 10512 10510 10508 10507 10506 10506 10507 10508 10509 10507 10506 10505 10503 10501 10501 10502 10503 10504 10506 10507 10508 10509 10510 10510 10510 10509 10509 10509 10510 10509 10511 10514
10538 10532 10546 10567 10564 10550 10545 10550 10552 10548 10539 10533 10531 10532 10533 10529 10526 10522 10517 10514 10510 10503 10503 10503 10504 10514 10528 10540 10546 10544 10542 10543 10539 10534 10529 10525 10524 10521 10518 10516 10514 10512 10511 10510 10509 10508 10508 10506 10504 10501 10499 10498 10496 10494 10492 10490 10490 10490 10488 10486 10485 10486 10488 10487 10486 10486 10486 10484 10483 10482 10483 10484 10486 10486 10488 10490 10491 10492 10492 10491 10491 10492 10492 10492 10494 10496
10523 10516 10522 10539 10544 10538 10534 10534 10532 10527 10522 10519 10517 10516 10516 10513 10508 10501 10496 10500 10498 10488 10484 10479 10476 10487 10504 10514 10519 10521 10520 10519 10517 10515 10510 10507 10505 10503 10500 10498 10495 10494 10494 10493 10493 10492 10492 10490 10488 10485 10482 10480 10478 10474 10472 10471 10470 10470 10469 10467 10466 10465 10466 10466 10465 10464 10464 10464 10463 10463 10463 10464 10465 10466 10468 10469 10470 10472 10473 10473 10473 10473 10473 10475 10476 10477
10506 10502 10502 10512 10521 10523 10522 10519 10515 10510 10508 10505 10499 10497 10497 10495 10490 10481 10476 10485 10485 10471 10465 10461 10454 10464 10483 10490 10490 10490 10489 10490 10492 10491 10489 10488 10486 10484 10482 10479 10477 10476 10474 10474 10474 10472 10472 10472 10471 10469 10466 10463 10460 10456 10451 10449 10449 10448 10448 10447 10445 10445 10445 10445 10445 10444 10442 10441 10440 10440 10441 10442 10444 10445 10447 10448 10449 10451 10453 10453 10453 10453 10455 10456 10457 10457
10491 10486 10484 10489 10497 10501 10504 10505 10502 10497 10493 10489 10483 10481 10480 10476 10475 10467 10460 10466 10466 10453 10449 10446 10437 10446 10466 10471 10464 10460 10458 10459 10462 10463 10464 10465 10465 10464 10461 10459 10458 10457 10455 10454 10453 10452 10451 10451 10450 10449 10447 10445 10441 10437 10431 10427 10425 10425 10425 10425 10424 10423 10423 10423 10424 10424 10424 10422 10419 10418 10418 10419 10421 10423 10425 10427 10428 10429 10431 10432 10434 10434 10436 10437 10438 10439
10475 10470 10467 10470 10476 10480 10484 10488 10487 10483 10478 10471 10466 10466 10463 10460 10460 10455 10448 10447 10441 10434 10437 10433 10425 10434 10447 10447 10441 10437 10433 10432 10433 10434 10436 10438 10440 10440 10437 10435 10435 10433 10433 10432 10431 10431 10431 10430 10428 10426 10424 10423 10420 10417 10413 10407 10403 10402 10401 10402 10402 10402 10401 10401 10401 10402 10404 10404 10403 10401 10399 10398 10399 10401 10403 10405 10406 10408 10409 10411 10413 10415 10417 10418 10419 10420
10460 10457 10454 10453 10458 10463 10469 10474 10473 10469 10464 10456 10452 10452 10449 10447 10445 10441 10439 10433 10420 10420 10428 10419 10408 10417 10424 10421 10418 10416 10410 10407 10407 10407 10406 10408 10410 10410 10408 10407 10406 10405 10405 10404 10405 10406 10407 10407 10406 10404 10403 10402 10399 10396 10394 10390 10386 10382 10380 10379 10379 10379 10379 10379 10379 10380 10381 10383 10384 10384 10383 10382 10381 10381 10381 10383 10385 10387 10387 10389 10391 10393 10396 10398 10400 10401
10445 10445 10445 10442 10441 10445 10453 10460 10459 10455 10449 10442 10440 10440 10438 10436 10433 10426 10421 10416 10410 10413 10414 10401 10392 10398 10401 10397 10393 10392 10389 10387 10386 10383 10380 10381 10382 10382 10381 10379 10377 10377 10376 10376 10377 10379 10380 10381 10382 10381 10381 10381 10379 10376 10374 10372 10369 10366 10363 10361 10359 10358 10357 10357 10357 10357 10359 10361 10363 10364 10364 10365 10365 10365 10363 10362 10364 10366 10367 10368 10370 10372 10375 10377 10380 10382
10428 10429 10433 10430 10425 10427 10433 10438 10440 10436 10429 10426 10426 10426 10425 10424 10423 10414 10404 10402 10403 10395 10384 10383 10384 10378 10375 10377 10374 10369 10367 10365 10365 10363 10361 10360 10359 10358 10358 10355 10354 10353 10352 10351 10352 10353 10354 10355 10356 10358 10358 10359 10359 10357 10355 10354 10352 10349 10346 10344 10341 10340 10339 10338 10336 10336 10336 10339 10341 10343 10344 10345 10346 10347 10348 10346 10345 10346 10347 10348 10350 10352 10354 10357 10359 10361
10410 10410 10418 10415 10407 10409 10413 10416 10419 10415 10407 10405 10405 10406 10409 10410 10409 10404 10397 10394 10389 10368 10355 10367 10372 10356 10352 10361 10358 10349 10346 10343 10342 10342 10341 10340 10339 10338 10337 10335 10332 10331 10330 10329 10330 10331 10332 10332 10333 10335 10337 10337 10338 10337 10336 10334 10333 10331 10329 10326 10324 10322 10321 10320 10319 10317 10317 10318 10320 10322 10324 10325 10326 10327 10329 10330 10329 10328 10329 10330 10331 10332 10333 10336 10340 10342
10391 10391 10401 10398 10389 10392 10395 10395 10397 10393 10385 10383 10383 10384 10389 10392 10392 10391 10386 10378 10366 10346 10336 10346 10349 10338 10340 10345 10338 10331 10328 10324 10322 10322 10321 10321 10322 10320 10319 10316 10312 10309 10307 10306 10306 10308 10309 10310 10312 10314 10315 10317 10317 10316 10315 10313 10312 10311 10310 10308 10306 10305 10304 10303 10301 10300 10299 10298 10299 10301 10303 10305 10306 10307 10309 10311 10312 10312 10312 10313 10314 10315 10315 10316 10319 10322
10372 10373 10381 10377 10370 10372 10376 10378 10377 10369 10361 10362 10364 10366 10369 10374 10376 10373 10364 10355 10343 10327 10321 10323 10321 10320 10327 10328 10319 10314 10311 10306 10304 10303 10303 10303 10302 10301 10300 10297 10294 10291 10289 10287 10285 10285 10286 10288 10289 10291 10292 10294 10294 10295 10294 10293 10292 10291 10290 10289 10287 10287 10286 10286 10285 10284 10282 10281 10281 10282 10283 10286 10287 10288 10289 10291 10293 10295 10295 10296 10297 10299 10300 10300 10301 10302
10354 10355 10360 10356 10347 10349 10358 10360 10353 10344 10340 10342 10346 10352 10357 10357 10353 10344 10337 10333 10323 10311 10307 10304 10295 10297 10309 10310 10301 10295 10293 10291 10289 10288 10286 10284 10281 10280 10278 10276 10275 10273 10271 10270 10269 10268 10267 10267 10268 10268 10269 10269 10270 10271 10272 10272 10273 10272 10271 10270 10268 10268 10268 10268 10269 10268 10267 10265 10265 10264 10265 10267 10268 10270 10271 10272 10274 10276 10277 10278 10279 10281 10282 10284 10285 10286
10337 10335 10338 10335 10324 10327 10341 10340 10327 10321 10318 10319 10332 10344 10345 10337 10326 10319 10315 10312 10305 10297 10292 10285 10277 10279 10286 10285 10278 10275 10275 10276 10275 10273 10270 10266 10262 10260 10258 10256 10255 10254 10254 10253 10252 10251 10250 10249 10248 10247 10246 10246 10247 10248 10249 10251 10253 10254 10253 10252 10250 10250 10250 10250 10250 10251 10251 10250 10250 10249 10249 10249 10250 10252 10253 10255 10256 10257 10258 10259 10261 10263 10264 10266 10268 10269
10320 10315 10316 10315 10304 10307 10323 10320 10306 10298 10294 10304 10326 10331 10320 10312 10306 10299 10294 10291 10289 10283 10274 10267 10265 10264 10262 10259 10258 10257 10257 10258 10258 10255 10252 10248 10245 10243 10242 10240 10239 10237 10237 10235 10234 10233 10231 10230 10229 10227 10227 10226 10226 10226 10227 10230 10233 10236 10236 10235 10233 10232 10232 10231 10232 10232 10233 10233 10234 10234 10234 10233 10233 10234 10235 10236 10238 10239 10240 10240 10241 10243 10245 10247 10250 10251
10304 10299 10296 10295 10286 10287 10301 10301 10285 10276 10280 10298 10312 10307 10297 10295 10290 10277 10271 10273 10274 10268 10257 10251 10248 10244 10241 10239 10239 10239 10240 10241 10239 10237 10235 10233 10230 10229 10227 10226 10224 10222 10220 10217 10215 10213 10211 10210 10209 10208 10208 10208 10208 10208 10208 10209 10213 10216 10217 10216 10216 10215 10214 10214 10214 10213 10214 10215 10216 10217 10218 10217 10218 10217 10217 10218 10219 10221 10222 10222 10222 10224 10225 10228 10231 10232
10286 10283 10278 10275 10269 10267 10276 10276 10262 10260 10277 10288 10287 10283 10282 10278 10266 10254 10253 10261 10260 10251 10242 10235 10228 10224 10222 10221 10220 10220 10222 10223 10224 10224 10221 10216 10215 10216 10214 10212 10209 10206 10204 10201 10197 10194 10192 10191 10191 10191 10191 10191 10191 10191 10190 10191 10194 10196 10197 10196 10195 10196 10196 10195 10196 10195 10195 10197 10199 10199 10199 10199 10200 10201 10200 10201 10201 10202 10204 10204 10205 10205 10205 10208 10211 10214
10266 10263 10257 10256 10255 10251 10252 10252 10244 10245 10261 10268 10264 10265 10262 10251 10242 10236 10237 10246 10247 10234 10224 10217 10211 10207 10205 10203 10202 10203 10204 10208 10213 10214 10205 10197 10198 10201 10199 10196 10192 10188 10186 10183 10180 10177 10175 10174 10175 10176 10176 10175 10174 10172 10171 10173 10176 10178 10179 10177 10175 10175 10176 10176 10177 10177 10178 10181 10183 10182 10181 10180 10181 10182 10183 10183 10184 10185 10186 10186 10188 10188 10188 10189 10191 10194
10247 10242 10238 10236 10238 10236 10230 10230 10230 10229 10238 10246 10247 10246 10236 10225 10224 10220 10216 10225 10230 10220 10210 10202 10194 10190 10188 10186 10187 10189 10191 10195 10199 10200 10190 10179 10181 10185 10181 10177 10175 10170 10168 10165 10162 10161 10159 10159 10160 10161 10161 10160 10158 10154 10153 10155 10158 10160 10161 10161 10158 10157 10158 10157 10157 10158 10161 10165 10167 10166 10164 10162 10161 10162 10163 10164 10166 10167 10168 10169 10170 10171 10170 10171 10173 10175
10231 10226 10222 10216 10217 10221 10213 10208 10212 10214 10216 10222 10225 10224 10216 10207 10205 10200 10192 10201 10212 10208 10196 10185 10179 10176 10174 10173 10174 10176 10178 10180 10184 10185 10173 10160 10161 10166 10163 10160 10156 10152 10150 10147 10144 10144 10143 10143 10145 10146 10145 10143 10140 10136 10135 10137 10140 10142 10144 10144 10142 10140 10139 10138 10137 10139 10144 10147 10148 10147 10146 10143 10142 10143 10144 10145 10146 10148 10150 10152 10152 10153 10152 10153 10156 10158
10218 10211 10207 10198 10200 10207 10199 10189 10193 10197 10196 10198 10201 10203 10199 10191 10186 10177 10170 10180 10194 10188 10175 10170 10168 10166 10163 10162 10164 10165 10166 10167 10169 10168 10157 10143 10140 10142 10142 10142 10139 10134 10132 10130 10128 10128 10128 10128 10129 10129 10126 10124 10121 10119 10118 10120 10123 10126 10127 10126 10124 10123 10121 10118 10119 10122 10126 10128 10127 10126 10125 10124 10123 10124 10124 10126 10127 10128 10130 10133 10135 10136 10135 10136 10139 10141
10206 10198 10193 10188 10189 10191 10183 10174 10175 10178 10179 10179 10178 10178 10178 10174 10168 10160 10156 10164 10170 10164 10159 10159 10157 10153 10151 10150 10151 10153 10153 10152 10151 10149 10141 10131 10124 10122 10122 10123 10121 10117 10116 10115 10113 10112 10112 10113 10113 10111 10109 10105 10102 10101 10101 10103 10108 10110 10110 10109 10107 10105 10102 10101 10104 10107 10107 10107 10106 10105 10104 10103 10103 10104 10105 10106 10108 10109 10111 10114 10117 10118 10119 10119 10121 10124
10193 10185 10181 10181 10180 10176 10166 10159 10159 10165 10169 10165 10154 10151 10154 10154 10151 10147 10145 10147 10147 10147 10149 10148 10142 10140 10140 10137 10136 10136 10136 10132 10130 10129 10126 10119 10114 10110 10106 10103 10102 10102 10101 10099 10097 10095 10095 10097 10097 10095 10093 10089 10085 10083 10084 10086 10091 10094 10093 10091 10089 10087 10086 10087 10090 10091 10088 10087 10086 10084 10082 10081 10081 10083 10085 10087 10089 10091 10094 10096 10097 10099 10101 10101 10103 10105
10174 10168 10170 10172 10166 10158 10153 10148 10146 10152 10158 10149 10134 10131 10134 10134 10132 10133 10133 10133 10132 10134 10134 10131 10130 10128 10125 10121 10120 10119 10117 10115 10113 10111 10110 10107 10104 10099 10093 10087 10085 10087 10086 10083 10081 10078 10079 10082 10081 10079 10078 10074 10069 10067 10067 10069 10074 10076 10074 10073 10070 10069 10070 10072 10073 10072 10070 10069 10067 10064 10061 10060 10059 10062 10064 10066 10068 10071 10076 10079 10078 10079 10082 10083 10084 10086
10156 10152 10156 10158 10150 10142 10143 10142 10135 10135 10139 10132 10119 10115 10118 10118 10118 10118 10118 10119 10120 10119 10116 10114 10115 10113 10107 10105 10105 10103 10103 10102 10098 10095 10095 10094 10091 10086 10080 10075 10071 10071 10071 10069 10066 10064 10064 10066 10066 10065 10064 10060 10055 10052 10051 10053 10056 10058 10056 10055 10053 10052 10053 10054 10052 10052 10052 10051 10049 10046 10044 10043 10042 10043 10045 10047 10049 10051 10057 10062 10061 10061 10064 10065 10066 10068
10142 10137 10140 10143 10136 10127 10131 10132 10120 10115 10120 10117 10106 10104 10105 10106 10106 10104 10104 10106 10106 10103 10099 10097 10098 10096 10091 10090 10089 10088 10088 10087 10083 10082 10082 10080 10078 10072 10066 10062 10059 10057 10057 10055 10052 10051 10049 10049 10051 10052 10051 10047 10041 10037 10037 10037 10038 10040 10039 10037 10036 10035 10035 10034 10033 10033 10034 10033 10032 10031 10029 10027 10027 10028 10028 10029 10031 10033 10038 10043 10042 10042 10044 10046 10048 10051
10129 10123 10122 10127 10121 10114 10118 10117 10101 10095 10104 10104 10097 10095 10093 10091 10093 10093 10093 10095 10092 10087 10083 10080 10081 10081 10077 10076 10076 10075 10073 10071 10069 10069 10068 10066 10064 10057 10051 10049 10046 10043 10042 10041 10039 10038 10036 10035 10037 10037 10037 10034 10027 10022 10021 10020 10019 10021 10023 10021 10019 10019 10019 10019 10017 10017 10017 10016 10014 10013 10012 10010 10011 10011 10009 10009 10010 10013 10017 10021 10021 10022 10024 10024 10026 10032
10113 10107 10108 10111 10105 10099 10104 10100 10079 10077 10093 10094 10085 10083 10079 10076 10080 10081 10080 10082 10080 10074 10070 10067 10067 10067 10064 10062 10063 10062 10060 10058 10056 10055 10054 10051 10048 10042 10038 10036 10033 10029 10027 10026 10025 10025 10024 10024 10025 10023 10022 10021 10014 10007 10006 10004 10001 10002 10006 10006 10006 10005 10005 10004 10002 10001 10000 9998 9995 9994 9993 9993 9993 9992 9990 9990 9990 9992 9996 9999 10001 10003 10005 10005 10006 10010
10094 10093 10097 10096 10088 10085 10091 10085 10063 10063 10082 10083 10071 10068 10064 10062 10065 10066 10064 10067 10067 10062 10059 10055 10054 10054 10052 10049 10049 10049 10048 10046 10043 10042 10041 10036 10031 10028 10025 10023 10020 10016 10013 10011 10010 10011 10012 10011 10011 10009 10006 10004 9998 9994 9992 9989 9985 9985 9988 9991 9992 9991 9991 9989 9985 9984 9983 9980 9977 9976 9975 9975 9976 9975 9973 9971 9972 9973 9975 9977 9979 9983 9987 9987 9987 9989
10074 10082 10086 10080 10075 10075 10077 10070 10053 10052 10069 10071 10058 10052 10050 10048 10050 10049 10048 10051 10053 10051 10048 10044 10041 10040 10037 10035 10035 10035 10035 10033 10030 10028 10026 10020 10016 10014 10011 10009 10006 10002 9999 9997 9996 9997 9997 9996 9995 9992 9988 9985 9982 9980 9978 9975 9972 9971 9972 9974 9973 9972 9974 9974 9969 9967 9966 9963 9960 9959 9959 9959 9959 9959 9958 9956 9956 9956 9958 9959 9960 9964 9970 9971 9969 9970
10055 10072 10073 10063 10067 10069 10060 10051 10042 10044 10058 10059 10044 10036 10037 10036 10036 10035 10033 10034 10037 10037 10035 10032 10028 10026 10023 10022 10022 10022 10021 10019 10016 10014 10011 10006 10003 10001 9998 9996 9993 9989 9986 9985 9983 9982 9981 9979 9977 9974 9971 9969 9967 9966 9965 9963 9960 9957 9955 9956 9956 9955 9956 9956 9953 9951 9950 9947 9946 9946 9946 9946 9945 9944 9943 9943 9942 9942 9943 9944 9944 9947 9953 9955 9954 9954
10041 10062 10060 10049 10057 10060 10047 10034 10029 10032 10044 10046 10031 10023 10025 10026 10024 10023 10021 10020 10021 10021 10019 10016 10014 10013 10011 10010 10010 10008 10007 10005 10002 9999 9997 9993 9991 9989 9986 9983 9981 9977 9975 9973 9971 9969 9966 9961 9959 9959 9957 9955 9953 9953 9953 9950 9945 9942 9941 9941 9941 9940 9939 9938 9937 9936 9934 9933 9934 9934 9933 9932 9931 9929 9928 9928 9928 9927 9928 9928 9929 9931 9935 9937 9937 9938
10027 10049 10047 10039 10045 10048 10036 10024 10016 10018 10028 10031 10020 10012 10013 10014 10012 10010 10009 10008 10007 10006 10004 10000 9998 9998 9998 9997 9996 9994 9993 9991 9988 9985 9983 9980 9978 9976 9973 9971 9969 9966 9964 9962 9960 9957 9952 9947 9944 9943 9941 9941 9940 9940 9939 9935 9931 9930 9930 9928 9927 9926 9924 9922 9922 9922 9920 9920 9921 9920 9918 9917 9916 9915 9914 9914 9913 9913 9913 9913 9913 9915 9918 9920 9921 9922